Weather History for Sheridan, WY

Change the Weather History Date:

Wednesday, March 5, 2014

  Actual Average Record
Temperature  
Mean Temperature 36 °F 32 °F  
Max Temperature 50 °F 45 °F 73 °F (1987)
Min Temperature 21 °F 19 °F -20 °F (1955)
Degree Days  
Heating Degree Days 29 33  
Month to date heating degree days 240 170  
Since 1 July heating degree days 5990 5705  
Cooling Degree Days 0 0  
Month to date cooling degree days 0 0  
Year to date cooling degree days 0 0  
Moisture  
Dew Point 22 °F    
Average Humidity 56    
Maximum Humidity 75    
Minimum Humidity 37    
Precipitation  
Precipitation 0.00 in 0.02 in 0.52 in (1991)
Month to date precipitation 0.13 0.11  
Year to date precipitation 1.98 1.21  
Sea Level Pressure  
Sea Level Pressure 29.95 in    
Wind  
Wind Speed 5 mph (South)    
Max Wind Speed 18 mph    
Max Gust Speed 23 mph    
Visibility 10 miles    
Events      
T = Trace of Precipitation, MM = Missing Value Source: NWS Daily Summary

Daily Weather History Graph

Daily Weather History Graph

Search for Another Location

Airport:

Trip Planner

Search our weather history database for the weather conditions in past years. The results will help you decide how hot, cold, wet, or windy it might be!

Date:

Astronomy

Mar. 05, 2014 Rise Set
Actual Time 6:38 AM MST 6:01 PM MST
Civil Twilight 6:09 AM MST 6:30 PM MST
Nautical Twilight 5:35 AM MST 7:04 PM MST
Astronomical Twilight 5:01 AM MST 7:38 PM MST
Moon 8:53 AM MST (3/5) 11:26 PM MST (3/5)
Length of Visible Light 12h 21m
Length of Day
11h 22m
Waxing Crescent, 24% of the Moon is Illuminated
Mar 5
Waxing Crescent
Mar 8
First Quarter
Mar 16
Full
Mar 23
Last Quarter
Mar 30
New

Hourly Weather History & Observations

Time (MST) Temp. Windchill Dew Point Humidity Pressure Visibility Wind Dir Wind Speed Gust Speed Precip Events Conditions
12:53 AM 30.9 °F 26.2 °F 17.1 °F 57% 30.03 in 10.0 mi South 4.6 mph - N/A   Clear
1:53 AM 24.1 °F 18.2 °F 15.1 °F 69% 30.05 in 10.0 mi South 4.6 mph - N/A   Clear
2:53 AM 25.0 °F 20.7 °F 15.1 °F 66% 30.05 in 10.0 mi West 3.5 mph - N/A   Clear
3:53 AM 26.1 °F 19.4 °F 15.1 °F 63% 30.04 in 10.0 mi SW 5.8 mph - N/A   Clear
4:53 AM 26.1 °F - 15.1 °F 63% 30.04 in 10.0 mi Calm Calm - N/A   Partly Cloudy
5:53 AM 23.0 °F - 14.0 °F 68% 30.09 in 10.0 mi Calm Calm - N/A   Clear
6:53 AM 27.0 °F - 15.1 °F 61% 30.09 in 10.0 mi Calm Calm - N/A   Clear
7:53 AM 30.0 °F 25.2 °F 16.0 °F 56% 30.07 in 10.0 mi South 4.6 mph - N/A   Clear
8:53 AM 36.0 °F 31.1 °F 21.0 °F 55% 30.05 in 10.0 mi SSE 5.8 mph - N/A   Clear
9:53 AM 42.1 °F 39.2 °F 23.0 °F 47% 30.03 in 10.0 mi South 4.6 mph - N/A   Clear
10:53 AM 46.0 °F 41.9 °F 21.0 °F 37% 30.01 in 10.0 mi South 8.1 mph - N/A   Clear
11:53 AM 46.0 °F 40.2 °F 23.0 °F 40% 29.99 in 10.0 mi SSE 12.7 mph - N/A   Clear
12:53 PM 46.9 °F - 21.9 °F 37% 29.94 in 10.0 mi SE 13.8 mph - N/A   Clear
1:53 PM 48.0 °F - 25.0 °F 41% 29.92 in 10.0 mi SE 12.7 mph - N/A   Clear
2:53 PM 48.0 °F - 26.1 °F 42% 29.90 in 10.0 mi South 6.9 mph - N/A   Clear
3:53 PM 48.0 °F - 26.1 °F 42% 29.88 in 10.0 mi SSE 4.6 mph - N/A   Clear
4:53 PM 43.0 °F 39.5 °F 28.0 °F 56% 29.87 in 10.0 mi SSW 5.8 mph - N/A   Clear
5:53 PM 41.0 °F - 26.1 °F 55% 29.89 in 10.0 mi Calm Calm - N/A   Clear
6:53 PM 41.0 °F 38.0 °F 27.0 °F 57% 29.90 in 10.0 mi North 4.6 mph - N/A   Overcast
7:53 PM 39.0 °F - 28.0 °F 65% 29.87 in 10.0 mi Calm Calm - N/A   Mostly Cloudy
8:53 PM 39.9 °F 36.7 °F 26.1 °F 58% 29.83 in 10.0 mi SSE 4.6 mph - N/A   Clear
9:53 PM 34.0 °F 31.0 °F 26.1 °F 73% 29.84 in 10.0 mi West 3.5 mph - N/A   Clear
10:53 PM 41.0 °F 38.0 °F 25.0 °F 53% 29.80 in 10.0 mi WNW 4.6 mph - N/A   Clear
11:53 PM 41.0 °F 39.0 °F 26.1 °F 55% 29.78 in 10.0 mi SSE 3.5 mph - N/A   Clear